2016-024A

Last updated on Sun Apr 10 2016 09:35:56 GMT+0000 (Coordinated Universal Time)

1 41452U 16024A 16101.20428384 -.00369544 00000-0 -50897-2 0 9993 2 41452 51.6449 37.0980 0002029 24.6076 56.5737 15.57822553 211
UTC large
Height (km)
Speed (km/s)
/
Latitude / Longitude
Inclination (degrees)
Orbital Period (minutes)
Azimuth
Elevation
Range (km)
Doppler Factor

Next 0 passes for location: London (51.5072 / 0.1276)

Sorry there are no passes over London.